Weather reports worldwide

Advertisment
Aviemore, United Kingdom (3063): temperature & dewpoint: 14.07.2018 23:00:00 - 20.07.2018 23:00:00 (BST)Aviemore, United Kingdom (3063): temperature -20cm & temperature -100cm: 14.07.2018 23:00:00 - 20.07.2018 23:00:00 (BST)Aviemore, United Kingdom (3063): wind speed: 14.07.2018 23:00:00 - 20.07.2018 23:00:00 (BST)Aviemore, United Kingdom (3063): wind direction: 14.07.2018 23:00:00 - 20.07.2018 23:00:00 (BST)Aviemore, United Kingdom (3063): reduced air pressure: 14.07.2018 23:00:00 - 20.07.2018 23:00:00 (BST)Aviemore, United Kingdom (3063): visibility: 14.07.2018 23:00:00 - 20.07.2018 23:00:00 (BST)Aviemore, United Kingdom (3063): sunshine duration: 14.07.2018 23:00:00 - 20.07.2018 23:00:00 (BST)Aviemore, United Kingdom (3063): precipitation: 14.07.2018 23:00:00 - 20.07.2018 23:00:00 (BST)
Date & Time tt [°C] td [°C] tt -20cm [°C] tt -100cm [°C] ff [km/h] ff [kn] dd ppp [hPa] vv [km] sd [min] rr [mm]
20.07.2018 23:00:00 14,5 13,7 - - 2 1 N 1012,5 18 0 0,0
20.07.2018 22:00:00 15,2 14,0 - - 4 2 NE 1012,5 20 0 0,0
20.07.2018 21:00:00 15,9 15,0 - - 0 0 N 1012,0 21 0 0,0
20.07.2018 20:00:00 16,1 15,4 - - 2 1 ESE 1011,7 22 0 0,2
20.07.2018 19:00:00 15,9 15,0 - - 5 3 NE 1011,3 19 0 1,8
20.07.2018 18:00:00 16,5 14,5 - - 5 3 WNW 1010,9 2,3 0 0,4
20.07.2018 17:00:00 17,7 14,2 - - 8 4 S 1010,6 30 18 0,0
20.07.2018 16:00:00 17,2 14,8 - - 4 2 W 1010,7 12 6 0,0
20.07.2018 15:00:00 16,8 14,6 - - 4 2 W 1010,7 8 0 0,6
20.07.2018 14:00:00 17,4 13,2 - - 9 5 SSW 1010,3 35 6 0,0
20.07.2018 13:00:00 16,4 13,9 - - 9 5 S 1010,5 30 6 0,0
20.07.2018 12:00:00 14,6 14,1 - - 5 3 S 1011,0 28 0 1,2
20.07.2018 11:00:00 12,4 11,9 - - 5 3 SSW 1011,4 5 0 3,8
20.07.2018 10:00:00 12,4 11,8 16,7 14,9 4 2 SSW 1011,6 3,5 0 1,4
20.07.2018 09:00:00 12,1 11,3 - - 5 3 SSW 1011,5 14 0 2,6
20.07.2018 08:00:00 11,8 11,1 - - 5 3 SW 1011,4 3,9 0 3,0
20.07.2018 07:00:00 11,8 11,1 - - 4 2 S 1011,6 7 0 1,0
20.07.2018 06:00:00 11,5 10,7 - - 8 4 SSW 1011,8 18 0 0,4
20.07.2018 05:00:00 11,6 10,6 - - 8 4 SSW 1012,4 6 0 0,2
20.07.2018 04:00:00 11,7 10,2 - - 5 3 SSW 1012,6 14 0 0,0
20.07.2018 03:00:00 11,6 9,9 - - 4 2 SSW 1013,1 20 0 0,0
20.07.2018 02:00:00 11,3 9,7 - - 5 3 SSW 1014,0 6 0 0,2
20.07.2018 01:00:00 11,7 9,0 - - 5 3 SSW 1014,4 30 - 0,0
20.07.2018 00:00:00 12,9 7,9 - - 5 3 SSW 1014,8 40 0 0,0
19.07.2018 23:00:00 13,6 7,4 - - 5 3 SSW 1015,3 25 0 0,0
19.07.2018 22:00:00 14,3 6,8 - - 5 3 SW 1015,5 35 0 0,0
19.07.2018 21:00:00 15,1 6,3 - - 5 3 SW 1015,4 35 0 0,0
19.07.2018 20:00:00 16,1 6,8 - - 9 5 SW 1015,4 35 6 0,0
19.07.2018 19:00:00 17,1 6,4 - - 9 5 SW 1015,1 40 48 0,0
19.07.2018 18:00:00 19,4 6,7 - - 11 6 SW 1015,1 40 60 0,0
19.07.2018 17:00:00 20,3 7,0 - - 9 5 SW 1015,4 40 60 0,0
19.07.2018 16:00:00 20,5 6,6 - - 13 7 SSW 1015,6 27 60 0,0
19.07.2018 15:00:00 21,0 7,3 - - 15 8 SW 1015,9 30 54 0,0
19.07.2018 14:00:00 20,6 7,4 - - 11 6 WSW 1016,0 29 54 0,0
19.07.2018 13:00:00 22,2 8,4 - - 9 5 SW 1016,0 26 60 0,0
19.07.2018 12:00:00 20,3 6,8 - - 9 5 SSW 1016,4 30 60 0,0
19.07.2018 11:00:00 20,2 7,7 - - 9 5 SSW 1016,7 30 60 0,0
19.07.2018 10:00:00 18,1 7,3 16,2 14,9 8 4 SW 1017,4 27 60 0,0
19.07.2018 09:00:00 14,3 9,0 - - 4 2 SE 1018,3 30 60 0,0
19.07.2018 08:00:00 9,1 7,6 - - 2 1 E 1019,3 28 54 0,0
19.07.2018 07:00:00 6,7 6,1 - - 4 2 SSE 1019,8 19 36 0,0
19.07.2018 06:00:00 5,2 4,9 - - 2 1 N 1020,0 19 0 0,0
19.07.2018 05:00:00 5,3 4,9 - - 2 1 S 1020,0 21 0 0,0
19.07.2018 04:00:00 5,4 4,8 - - 2 1 WNW 1020,0 18 0 0,0
19.07.2018 03:00:00 6,8 5,9 - - 2 1 SW 1019,9 18 0 0,0
19.07.2018 02:00:00 7,3 5,9 - - 2 1 SW 1019,9 18 0 0,0
19.07.2018 01:00:00 8,0 6,6 - - 2 1 WSW 1019,8 19 - 0,0
19.07.2018 00:00:00 9,1 6,6 - - 4 2 W 1019,7 23 0 0,0
18.07.2018 23:00:00 11,3 7,3 - - 4 2 NW 1019,2 19 0 0,0
18.07.2018 22:00:00 13,2 7,2 - - 2 1 N 1018,7 28 0 0,0
18.07.2018 21:00:00 16,0 7,5 - - 4 2 NNE 1018,2 28 0 0,0
18.07.2018 20:00:00 17,3 6,9 - - 2 1 N 1017,8 27 6 0,0
18.07.2018 19:00:00 18,9 6,2 - - 4 2 SSW 1017,3 26 12 0,0
18.07.2018 18:00:00 18,1 5,9 - - 5 3 SW 1017,3 27 0 0,0
18.07.2018 17:00:00 18,0 6,2 - - 5 3 WNW 1017,3 30 6 0,0
18.07.2018 16:00:00 18,2 6,7 - - 4 2 NW 1017,2 28 0 0,0
18.07.2018 15:00:00 16,8 6,8 - - 5 3 N 1017,0 30 0 0,0
18.07.2018 14:00:00 16,8 7,0 - - 4 2 N 1016,6 29 0 0,0
18.07.2018 13:00:00 16,9 5,4 - - 5 3 W 1016,3 29 0 0,0
18.07.2018 12:00:00 15,9 6,5 - - 5 3 W 1016,2 30 0 0,0
18.07.2018 11:00:00 15,3 7,8 - - 5 3 SW 1016,1 25 0 0,0
18.07.2018 10:00:00 14,3 8,2 16,7 15,0 5 3 S 1016,1 23 0 0,0
18.07.2018 09:00:00 13,9 9,0 - - 8 4 SSW 1016,1 24 6 0,0
18.07.2018 08:00:00 12,9 9,0 - - 5 3 SSW 1016,1 22 18 0,0
18.07.2018 07:00:00 11,7 8,8 - - 4 2 E 1015,7 22 6 0,0
18.07.2018 06:00:00 10,6 8,7 - - 2 1 WSW 1015,5 22 0 0,0
18.07.2018 05:00:00 9,4 7,9 - - 4 2 NNE 1015,3 22 0 0,0
18.07.2018 04:00:00 9,7 7,8 - - 2 1 E 1015,2 24 0 0,0
18.07.2018 03:00:00 9,8 7,9 - - 2 1 W 1015,1 30 0 0,0
18.07.2018 02:00:00 9,9 7,5 - - 2 1 SW 1015,1 35 0 0,0
18.07.2018 01:00:00 10,2 6,8 - - 4 2 W 1015,1 40 - 0,0
18.07.2018 00:00:00 10,7 7,4 - - 5 3 W 1014,7 45 0 0,0
17.07.2018 23:00:00 10,0 8,5 - - 4 2 WNW 1014,6 26 0 0,0
17.07.2018 22:00:00 11,4 8,8 - - 2 1 N 1014,1 29 0 0,0
17.07.2018 21:00:00 12,8 8,8 - - 5 3 WNW 1013,5 30 0 0,0
17.07.2018 20:00:00 13,4 10,5 - - 4 2 NW 1013,0 29 0 0,0
17.07.2018 19:00:00 13,5 12,2 - - 2 1 NNE 1012,6 22 0 0,2
17.07.2018 18:00:00 13,2 12,1 - - 2 1 NW 1012,7 6 0 1,2
17.07.2018 17:00:00 14,3 10,4 - - 5 3 NW 1012,1 29 0 0,8
17.07.2018 16:00:00 16,3 8,2 - - 11 6 W 1011,7 30 6 0,0
17.07.2018 15:00:00 17,4 8,5 - - 9 5 SW 1011,5 30 12 0,0
17.07.2018 14:00:00 18,6 9,6 - - 15 8 WSW 1011,5 35 24 0,0
17.07.2018 13:00:00 17,2 8,5 - - 8 4 SSW 1011,5 30 6 0,0
17.07.2018 12:00:00 15,2 12,4 - - 8 4 SW 1011,8 23 6 0,0
17.07.2018 11:00:00 17,7 10,1 - - 8 4 S 1011,3 30 6 0,0
17.07.2018 10:00:00 15,1 8,7 16,9 15,0 8 4 S 1011,6 30 0 0,0
17.07.2018 09:00:00 14,0 8,6 - - 8 4 S 1012,0 30 0 0,0
17.07.2018 08:00:00 13,0 8,4 - - 9 5 S 1011,8 25 18 0,0
17.07.2018 07:00:00 10,1 7,6 - - 2 1 WSW 1012,0 27 0 0,0
17.07.2018 06:00:00 9,5 7,7 - - 5 3 SW 1012,2 27 0 0,0
17.07.2018 05:00:00 9,0 7,4 - - 2 1 ENE 1012,0 27 0 0,0
17.07.2018 04:00:00 9,3 7,4 - - 2 1 SE 1012,2 30 0 0,0
17.07.2018 03:00:00 10,6 7,7 - - 4 2 SSW 1012,2 40 0 0,0
17.07.2018 02:00:00 11,4 7,7 - - 4 2 W 1012,3 40 0 0,0
17.07.2018 01:00:00 12,7 7,5 - - 8 4 WSW 1012,2 40 - 0,0
17.07.2018 00:00:00 12,9 8,0 - - 5 3 SW 1012,3 29 0 0,0
16.07.2018 23:00:00 13,5 7,6 - - 5 3 SW 1012,1 35 0 0,0
16.07.2018 22:00:00 14,5 7,0 - - 8 4 SW 1011,8 28 0 0,0
16.07.2018 21:00:00 15,4 7,5 - - 4 2 SW 1011,4 26 0 0,0
16.07.2018 20:00:00 16,1 7,8 - - 5 3 SW 1011,2 28 6 0,0
16.07.2018 19:00:00 17,5 7,5 - - 9 5 SW 1010,8 29 12 0,0
16.07.2018 18:00:00 19,5 7,9 - - 9 5 WSW 1010,3 30 30 0,0
16.07.2018 17:00:00 18,8 6,6 - - 11 6 SW 1010,2 28 0 0,0
16.07.2018 16:00:00 19,0 8,3 - - 9 5 SW 1010,2 28 0 0,0
16.07.2018 15:00:00 19,7 9,9 - - 11 6 SW 1010,3 30 6 0,0
16.07.2018 14:00:00 19,0 9,7 - - 11 6 S 1010,1 27 48 0,0
16.07.2018 13:00:00 20,0 11,6 - - 8 4 SW 1010,1 30 54 0,0
16.07.2018 12:00:00 16,4 11,4 - - 8 4 S 1010,7 29 0 0,0
16.07.2018 11:00:00 15,1 11,8 - - 5 3 SSW 1010,7 27 0 0,0
16.07.2018 10:00:00 14,6 13,2 16,7 15,0 4 2 SSW 1010,5 26 0 0,0
16.07.2018 09:00:00 13,4 12,4 - - 4 2 SSW 1010,6 16 0 1,0
16.07.2018 08:00:00 13,6 12,5 - - 5 3 SSW 1010,3 7 0 0,0
16.07.2018 07:00:00 13,9 12,8 - - 4 2 NNE 1009,9 21 0 0,0
16.07.2018 06:00:00 14,4 12,6 - - 5 3 WSW 1009,6 5 0 0,8
16.07.2018 05:00:00 17,0 14,1 - - 5 3 WSW 1008,9 30 0 0,0
16.07.2018 04:00:00 16,9 14,2 - - 9 5 SW 1008,8 45 0 0,0
16.07.2018 03:00:00 17,1 13,9 - - 5 3 SW 1008,9 28 0 0,0
16.07.2018 02:00:00 17,0 14,1 - - 9 5 SW 1009,3 26 0 0,0
16.07.2018 01:00:00 17,3 14,0 - - 8 4 SW 1009,6 27 - 0,0
16.07.2018 00:00:00 17,6 14,1 - - 5 3 SW 1010,0 27 0 0,0
15.07.2018 23:00:00 17,5 14,1 - - 4 2 SW 1010,1 20 0 0,0
15.07.2018 22:00:00 17,6 14,1 - - 5 3 WSW 1010,3 29 0 0,0
15.07.2018 21:00:00 17,8 14,2 - - 5 3 SW 1010,3 30 0 0,0
15.07.2018 20:00:00 18,2 14,5 - - 9 5 WSW 1010,3 30 0 0,0
15.07.2018 19:00:00 18,8 15,0 - - 8 4 SW 1010,2 19 0 0,0
15.07.2018 18:00:00 19,0 14,8 - - 8 4 SW 1010,5 30 0 0,0
15.07.2018 17:00:00 18,8 15,8 - - 9 5 SW 1010,9 25 0 0,0
15.07.2018 16:00:00 19,2 14,3 - - 9 5 SSW 1011,0 29 0 0,0
15.07.2018 15:00:00 19,5 14,9 - - 8 4 SSW 1010,7 27 0 0,0
15.07.2018 14:00:00 19,9 16,9 - - 8 4 SSW 1011,0 29 6 0,4
15.07.2018 13:00:00 19,1 15,5 - - 8 4 SW 1011,2 28 0 0,0
15.07.2018 12:00:00 19,3 14,5 - - 8 4 SSW 1011,1 17 0 0,0
15.07.2018 11:00:00 19,5 14,0 - - 9 5 S 1010,9 30 0 0,0
15.07.2018 10:00:00 19,2 14,1 17,0 15,0 5 3 SSW 1011,1 30 0 0,0
15.07.2018 09:00:00 17,9 14,2 - - 8 4 S 1011,4 29 0 0,0
15.07.2018 08:00:00 17,6 14,1 - - 5 3 SSW 1011,8 28 0 0,0
15.07.2018 07:00:00 17,2 14,0 - - 5 3 SW 1011,6 26 0 0,0
15.07.2018 06:00:00 17,0 13,9 - - 5 3 SSW 1011,4 29 0 0,0
15.07.2018 05:00:00 17,0 13,7 - - 9 5 SSW 1011,1 30 0 0,0
15.07.2018 04:00:00 17,2 13,6 - - 8 4 SSW 1011,6 30 0 0,0
15.07.2018 03:00:00 17,1 13,4 - - 8 4 SW 1012,0 30 0 0,0
15.07.2018 02:00:00 17,3 13,3 - - 8 4 SW 1012,2 30 0 0,0
15.07.2018 01:00:00 17,4 13,1 - - 9 5 SSW 1012,3 35 - 0,0
15.07.2018 00:00:00 17,6 13,1 - - 5 3 SSW 1012,6 35 0 0,0
14.07.2018 23:00:00 17,9 12,8 - - 5 3 SSW 1012,8 27 0 0,0

tt = temperature
td = dewpoint
tt -20cm = temperature -20cm
tt -100cm = temperature -100cm
ff = wind speed
dd = wind direction
ppp = reduced air pressure
vv = visibility
sd = sunshine duration
rr = precipitation

Next stations